Tracking 19246 objects as of 21-Sep-2018
HD Live streaming from Space Station
objects crossing your sky now

FENGYUN 1C DEB

Track FENGYUN 1C DEB now!
10-day predictions


NORAD ID: 36670
Int'l Code: 1999-025DYQ
Perigee: 775.4 km
Apogee: 837.4 km
Inclination: 98.8 °
Period: 100.9 minutes
Semi major axis: 7177 km
RCS: 0.014 m2 (small)
Launch date: May 10, 1999
Source: People's Republic of China (PRC)
Launch site: Taiyaun Space Center, China (TSC)

Note: This is SATELLITE DEBRIS
aabbcc
Your satellite tracking list
Your tracking list is empty




NASA's NSSDC Master Catalog

Two Line Element Set (TLE):
1 36670U 99025DYQ 18263.33093492 +.00000780 +00000-0 +33106-3 0  9991
2 36670 098.8242 310.7711 0043177 245.0198 114.6494 14.27754965253771
Source of the keplerian elements: AFSPC